This is the latest recevied weather packets stored in our database for station/object NN5DX-13. If no packets are shown the sender has not sent any weather packets the latest 10 day(s).
| Time | Temp. | Humidity | Pressure | Rain* | Wind** | Luminosity | Snow |
|---|---|---|---|---|---|---|---|
| 1787922019 | 22.22° C | 64% | 1020.9 hPa | 0 mm | - | - | - |
| 1787921720 | 21.67° C | 65% | 1020.6 hPa | 0 mm | - | - | - |
| 1787921419 | 21.67° C | 66% | 1020.9 hPa | 0 mm | - | - | - |
| 1787921121 | 21.11° C | 67% | 1020.8 hPa | 0 mm | - | - | - |
| 1787920819 | 20.56° C | 68% | 1020.8 hPa | 0 mm | - | - | - |
| 1787920520 | 20.56° C | 69% | 1020.7 hPa | 0 mm | - | - | - |
| 1787920220 | 20.56° C | 69% | 1020.6 hPa | 0 mm | - | - | - |
| 1787919919 | 20.56° C | 69% | 1020.6 hPa | 0 mm | - | - | - |
| 1787919619 | 20.56° C | 68% | 1020.5 hPa | 0 mm | - | - | - |
| 1787919319 | 20.56° C | 68% | 1020.5 hPa | 0 mm | - | - | - |
| 1787919020 | 20.56° C | 68% | 1020.5 hPa | 0 mm | - | - | - |
| 1787918719 | 20.56° C | 68% | 1020.5 hPa | 0 mm | - | - | - |
| 1787918419 | 20.56° C | 68% | 1020.5 hPa | 0 mm | - | - | - |
| 1787918119 | 21.11° C | 68% | 1020.6 hPa | 0 mm | - | - | - |
| 1787917819 | 21.11° C | 69% | 1020.7 hPa | 0 mm | - | - | - |
| 1787917521 | 21.11° C | 68% | 1020.4 hPa | 0 mm | - | - | - |
| 1787917219 | 21.11° C | 67% | 1020.4 hPa | 0 mm | - | - | - |
| 1787916919 | 21.11° C | 67% | 1020.5 hPa | 0 mm | - | - | - |
| 1787916619 | 21.11° C | 67% | 1020.5 hPa | 0 mm | - | - | - |
| 1787916319 | 21.11° C | 67% | 1020.5 hPa | 0 mm | - | - | - |
| 1787916019 | 21.11° C | 67% | 1020.4 hPa | 0 mm | - | - | - |
| 1787915720 | 21.11° C | 66% | 1020.4 hPa | 0 mm | - | - | - |
| 1787915419 | 21.11° C | 66% | 1020.3 hPa | 0 mm | - | - | - |
| 1787915119 | 21.67° C | 65% | 1020.2 hPa | 0 mm | - | - | - |
| 1787914819 | 21.67° C | 64% | 1020.4 hPa | 0 mm | - | - | - |
* Rain latest hour (hover to see other rain measurements)
** Current wind speed in m/s (hover to see current wind gust speed)